THORAD DELTA 1 R/B(2), 9330

Orbit data source: Space-Track

THORAD DELTA 1 R/B(2), 9330 is space debris in HEO originally from a launch on Thu, 19 Dec 1974 UTC launched from the Air Force Eastern Test Range (AFETR). Debris objects in space refer to the collection of defunct objects orbiting the Earth. Examples of debris include non-operational satellites, rocket bodies, and fragments generated from explosions, collisions, or faulty payload assembly.

Loading next visibility...
Identifier
9330, 1974-101G
Orbit
HEO
Last TLE update
17 hours ago
Origin
Manufacturer
Thiokol/TE
Mission
Spacecraft
Bus & Motor
STAR 37, Unknown motor
Mass
~83 kg wet, 83 kg dry
Launch date (UTC)
1974-12-19 (51 years ago)
Launch vehicle
Unknown
Launch site
Air Force Eastern Test Range (AFETR)
Object type
Payload
Rocket body
Debris
Shape & HBR
Domed Cyl + 1 Nozzle, 1.67 m
Radar Cross Section
1.559 m², Large (>1 m²)

Expand to show TLE details & history

TLE from 17 hours ago
0 THORAD DELTA 1 R/B(2)
1 09330U 74101G   25181.68070515  .00001214  00000-0  22430-2 0  9998
2 09330  12.8523  94.2324 7211129   9.2296 358.9344  2.30948554410914
Epoch: 2025-06-30T16:20Z
TLE epoch observation values (Epoch: 2025-06-30T16:20:12.924Z)
Latitude
-0.00063°
Longitude
-69.81406°
Altitude
378.395 km
Speed
10.074 km/s
True Right ascension
06h 16m 54s
True Declination
0° 00' 02"
Sunlit
Object was in daylight at epoch
Visualization orbit readout
Latitude
-4.94346°
Longitude
132.10928°
Altitude
32,674.777 km
Speed
1.982 km/s
Apparent Right ascension
19h 33m 01s
Apparent Declination
-12° 12' 07"
Sunlit
Object is in daylight
Visualization observer readout
Local Sidereal Time
21:07:36
Azimuth
208.022° SW
Elevation
33.442°
Doppler factor
1
Orbital elements
Apogee altitude
35,240.936 km
Perigee altitude
365.768 km
Semi-major axis
24,181.489 km
Eccentricity
0.72111
Inclination
12.8523°
RAAN
94.2324°
Arg. of periapsis
9.2296°
True anomaly
Unknown
Mean anomaly
358.9344°
Eccentric anomaly
Unknown
Mean motion
0.57719 °/min
Orbital period
623.71 mins
BSTAR
0.002243
Loading maneuver chart data...
Loading SW <> Apogee altitude chart data...
Loading historical data...
Loading historical data...
Loading historical data...
Loading historical data...
Loading historical data...
Loading historical data...
Loading historical data...

THORAD DELTA 1 R/B(2) Visibility forecast

Observer location: undefined°, undefined°

Span
Click to sort rows by Start time (UTC) header in descending order
Start Az.
Max El. time (UTC)
Max El. Az.
Max El.
End time (UTC)
End Az.
184 mins2025-07-01 09:29:18.840Z208.012° SW2025-07-01 09:29:18.840Z208.012° SW28.85°2025-07-01 12:33:18.840Z183.704° SSW
555 mins2025-07-01 23:46:18.840Z196.602° SSW2025-07-02 06:24:18.840Z145.732° SSE26.958°2025-07-02 09:01:18.840Z143.299° SSE
|